Home   Weather   Greenville   Past weeks
Flag for USA

Past Weather in Greenville, South Carolina, USA — Yesterday and Last 2 Weeks

Now
77 °F

Overcast.


Feels Like: 78 °F
Forecast: 83 / 71 °F
Wind: 9 mph from Southwest

Location: Greenville Downtown Airport

Current Time: Jun 18, 2019 at 11:05:51 am

Latest Report: Jun 18, 2019 at 9:53 am


Visibility: 10 mi

Pressure: 30.01 "Hg

Humidity: 85%

Dew Point: 72 °F

Location of GreenvilleLocation

Past Weather in Greenville — Graph

°F

Greenville Temperature Yesterday

Maximum temperature yesterday: 92 °F (at 3:53 pm)
Minimum temperature yesterday: 73 °F (at 5:53 am)
Average temperature yesterday: 83 °F

High & Low Weather Summary for the Past Weeks

 TemperatureHumidityPressure
High92 °F (Jun 17, 3:53 pm)100% (Jun 7, 7:58 am)30.25 "Hg (Jun 7, 7:58 am)
Low58 °F (Jun 14, 3:53 am)25% (Jun 3, 3:00 pm)29.73 "Hg (Jun 7, 3:53 pm)
Average75 °F72%29.98 "Hg
* Reported Jun 3 9:53 am — Jun 18 9:53 am, Greenville. Weather by CustomWeather, © 2019

Note: Actual official high and low records may vary slightly from our data, if they occured in-between our weather recording intervals... More about our weather records

Advertising

Greenville Weather History for the Previous 24 Hours

Scroll right to see more
 ConditionsComfort  
Time TempWeatherWind HumidityBarometerVisibility
9:53 am
Tue, Jun 18
77 °FOvercast.9 mph85%30.01 "Hg10 mi
9:36 am77 °FMostly cloudy.9 mph85%30.05 "Hg10 mi
8:53 am77 °FCloudy.12 mph85%30.02 "Hg10 mi
7:53 am76 °FLight rain. Passing clouds.6 mph88%30.02 "Hg10 mi
7:23 am74 °FPartly sunny.No wind94%30.06 "Hg10 mi
6:53 am74 °FLight rain. Partly sunny.No wind91%30.02 "Hg10 mi
6:08 am73 °FOvercast.No wind90%30.06 "Hg10 mi
5:53 am73 °FMostly cloudy.3 mph90%30.03 "Hg10 mi
5:15 am73 °FPartly cloudy.5 mph94%30.05 "Hg10 mi
4:53 am74 °FOvercast.No wind91%30.02 "Hg10 mi
3:53 am74 °FMostly cloudy.5 mph91%30.02 "Hg10 mi
3:13 am73 °FPartly cloudy.3 mph90%30.06 "Hg10 mi
2:53 am73 °FPassing clouds.3 mph90%30.03 "Hg10 mi
2:21 am75 °FPassing clouds.3 mph85%30.07 "Hg10 mi
1:53 am73 °FPartly cloudy.3 mph90%30.04 "Hg10 mi
1:42 am73 °FThundershowers. Passing clouds.7 mph88%30.08 "Hg10 mi
12:53 am74 °FLight rain. Mostly cloudy.8 mph85%30.06 "Hg10 mi
12:39 am75 °FLight rain. Mostly cloudy.8 mph85%30.10 "Hg10 mi
12:24 am76 °FThundershowers. Mostly cloudy.8 mph80%30.10 "Hg10 mi
12:09 am77 °FThunderstorms. Overcast.10 mph79%30.10 "Hg10 mi
11:53 pm
Mon, Jun 17
82 °FThundershowers. Mostly cloudy.13 mph67%30.05 "Hg10 mi
10:53 pm83 °FMostly cloudy.7 mph63%30.03 "Hg10 mi
9:53 pm84 °FClear.6 mph61%30.00 "Hg10 mi
8:53 pm85 °FClear.6 mph61%30.01 "Hg10 mi
7:53 pm87 °FSunny.8 mph53%29.99 "Hg10 mi
6:53 pm89 °FSunny.14 mph52%29.98 "Hg10 mi
5:53 pm91 °FScattered clouds.15 mph47%29.98 "Hg10 mi
4:53 pm91 °FPassing clouds.9 mph50%29.99 "Hg10 mi
3:53 pm92 °FPassing clouds.10 mph47%30.00 "Hg10 mi
2:53 pm90 °FSunny.12 mph45%30.01 "Hg10 mi
1:53 pm90 °FSunny.8 mph47%30.03 "Hg10 mi
12:53 pm88 °FScattered clouds.8 mph52%30.06 "Hg10 mi
11:53 am88 °FSunny.12 mph54%30.06 "Hg9 mi
Weather by CustomWeather, © 2019

See weather overview